Time,TemperatureF,DewpointF,PressureIn,WindDirection,WindDirectionDegrees,WindSpeedMPH,WindSpeedGustMPH,Humidity,HourlyPrecipIn,Conditions,Clouds,dailyrainin,SoftwareType,DateUTC
2013-05-22 00:01:00,70.5,59.4,30.04,SW,227,0.0,0.0,68,0.00,,,0.00,meteohub,2013-05-22 04:01:00,
2013-05-22 00:06:00,70.5,59.4,30.04,SW,227,0.0,0.0,68,0.00,,,0.00,meteohub,2013-05-22 04:06:00,
2013-05-22 00:11:00,70.5,59.4,30.04,SW,227,0.0,0.0,68,0.00,,,0.00,meteohub,2013-05-22 04:11:00,
2013-05-22 00:16:00,70.3,59.4,30.04,SW,227,0.0,0.0,68,0.00,,,0.00,meteohub,2013-05-22 04:16:00,
2013-05-22 00:21:00,70.3,59.4,30.04,SW,227,0.0,0.0,68,0.00,,,0.00,meteohub,2013-05-22 04:21:00,
2013-05-22 00:26:00,70.3,59.4,30.04,SW,227,0.0,0.0,68,0.00,,,0.00,meteohub,2013-05-22 04:26:00,
2013-05-22 00:31:00,70.2,59.2,30.04,SW,226,0.0,0.0,68,0.00,,,0.00,meteohub,2013-05-22 04:31:00,
2013-05-22 00:36:00,70.2,59.2,30.04,SW,226,0.0,0.0,68,0.00,,,0.00,meteohub,2013-05-22 04:36:00,
2013-05-22 00:41:00,70.2,59.2,30.04,SW,227,0.0,0.0,68,0.00,,,0.00,meteohub,2013-05-22 04:41:00,
2013-05-22 00:46:00,70.0,59.0,30.04,SW,227,0.0,0.0,68,0.00,,,0.00,meteohub,2013-05-22 04:46:00,
2013-05-22 00:51:00,70.0,59.0,30.04,SW,227,0.0,0.0,68,0.00,,,0.00,meteohub,2013-05-22 04:51:00,
2013-05-22 00:57:00,70.0,59.0,30.04,SW,227,0.0,0.0,68,0.00,,,0.00,meteohub,2013-05-22 04:57:00,
2013-05-22 01:02:00,69.8,58.8,30.04,SW,227,0.0,3.0,68,0.00,,,0.00,meteohub,2013-05-22 05:02:00,
2013-05-22 01:07:00,69.8,58.8,30.04,SW,227,0.0,3.0,68,0.00,,,0.00,meteohub,2013-05-22 05:07:00,
2013-05-22 01:12:00,69.6,59.0,30.04,SW,227,0.0,0.0,69,0.00,,,0.00,meteohub,2013-05-22 05:12:00,
2013-05-22 01:17:00,69.6,59.0,30.04,SW,227,0.0,0.0,69,0.00,,,0.00,meteohub,2013-05-22 05:17:00,
2013-05-22 01:22:00,69.6,59.0,30.04,SW,227,0.0,0.0,69,0.00,,,0.00,meteohub,2013-05-22 05:22:00,
2013-05-22 01:27:00,69.4,58.8,30.04,SW,227,0.0,0.0,69,0.00,,,0.00,meteohub,2013-05-22 05:27:00,
2013-05-22 01:32:00,69.4,58.8,30.04,SW,227,0.0,0.0,69,0.00,,,0.00,meteohub,2013-05-22 05:32:00,
2013-05-22 01:37:00,69.4,58.8,30.04,SW,227,0.0,0.0,69,0.00,,,0.00,meteohub,2013-05-22 05:37:00,
2013-05-22 01:42:00,69.3,58.6,30.04,SW,227,0.0,0.0,69,0.00,,,0.00,meteohub,2013-05-22 05:42:00,
2013-05-22 01:47:00,69.3,58.6,30.04,SW,227,0.0,0.0,69,0.00,,,0.00,meteohub,2013-05-22 05:47:00,
2013-05-22 01:52:00,69.3,58.6,30.04,SW,226,2.0,0.0,69,0.00,,,0.00,meteohub,2013-05-22 05:52:00,
2013-05-22 01:57:00,69.3,58.6,30.04,SW,226,0.0,3.0,69,0.00,,,0.00,meteohub,2013-05-22 05:57:00,
2013-05-22 02:02:00,69.1,58.8,30.04,SW,226,0.0,3.0,70,0.00,,,0.00,meteohub,2013-05-22 06:02:00,
2013-05-22 02:07:00,69.1,58.8,30.04,SW,226,0.0,3.0,70,0.00,,,0.00,meteohub,2013-05-22 06:07:00,
2013-05-22 02:12:00,69.1,58.8,30.04,SW,226,0.0,0.0,70,0.00,,,0.00,meteohub,2013-05-22 06:12:00,
2013-05-22 02:18:00,69.1,58.8,-100.00,SW,226,0.0,0.0,70,0.00,,,0.00,meteohub,2013-05-22 06:18:00,
2013-05-22 02:23:00,69.1,58.8,30.04,SW,227,0.0,0.0,70,0.00,,,0.00,meteohub,2013-05-22 06:23:00,
2013-05-22 02:28:00,68.9,58.6,30.01,SW,227,0.0,0.0,70,0.00,,,0.00,meteohub,2013-05-22 06:28:00,
2013-05-22 02:33:00,68.9,58.6,30.01,SW,227,0.0,0.0,70,0.00,,,0.00,meteohub,2013-05-22 06:33:00,
2013-05-22 02:38:00,68.9,58.6,30.01,SW,227,0.0,0.0,70,0.00,,,0.00,meteohub,2013-05-22 06:38:00,
2013-05-22 02:43:00,68.9,58.6,30.01,SW,227,0.0,0.0,70,0.00,,,0.00,meteohub,2013-05-22 06:43:00,
2013-05-22 02:48:00,68.7,58.5,30.01,SW,227,0.0,0.0,70,0.00,,,0.00,meteohub,2013-05-22 06:48:00,
2013-05-22 02:53:00,68.7,58.5,30.01,SW,227,0.0,0.0,70,0.00,,,0.00,meteohub,2013-05-22 06:53:00,
2013-05-22 02:58:00,68.7,58.5,30.01,SW,227,0.0,0.0,70,0.00,,,0.00,meteohub,2013-05-22 06:58:00,
2013-05-22 03:03:00,68.7,58.5,30.01,SW,227,0.0,0.0,70,0.00,,,0.00,meteohub,2013-05-22 07:03:00,
2013-05-22 03:08:00,68.5,58.3,30.01,SW,227,0.0,0.0,70,0.00,,,0.00,meteohub,2013-05-22 07:08:00,
2013-05-22 03:13:00,68.5,58.3,30.01,SW,227,0.0,0.0,70,0.00,,,0.00,meteohub,2013-05-22 07:13:00,
2013-05-22 03:18:00,68.5,58.3,30.01,SW,227,0.0,0.0,70,0.00,,,0.00,meteohub,2013-05-22 07:18:00,
2013-05-22 03:23:00,68.5,58.3,30.01,SW,227,0.0,0.0,70,0.00,,,0.00,meteohub,2013-05-22 07:23:00,
2013-05-22 03:28:00,68.5,58.8,30.01,SW,227,0.0,0.0,71,0.00,,,0.00,meteohub,2013-05-22 07:28:00,
2013-05-22 03:33:00,68.4,58.6,30.01,SW,227,0.0,0.0,71,0.00,,,0.00,meteohub,2013-05-22 07:33:00,
2013-05-22 03:38:00,68.4,58.6,30.01,SW,227,0.0,0.0,71,0.00,,,0.00,meteohub,2013-05-22 07:38:00,
2013-05-22 03:43:00,68.4,58.6,29.99,SW,227,0.0,0.0,71,0.00,,,0.00,meteohub,2013-05-22 07:43:00,
2013-05-22 03:48:00,68.2,58.5,29.99,SW,227,0.0,0.0,71,0.00,,,0.00,meteohub,2013-05-22 07:48:00,
2013-05-22 03:53:00,68.2,58.5,29.99,SW,227,0.0,0.0,71,0.00,,,0.00,meteohub,2013-05-22 07:53:00,
2013-05-22 03:58:00,68.2,58.5,29.99,SW,226,0.0,0.0,71,0.00,,,0.00,meteohub,2013-05-22 07:58:00,
2013-05-22 04:03:00,68.2,58.5,29.99,SW,227,0.0,0.0,71,0.00,,,0.00,meteohub,2013-05-22 08:03:00,
2013-05-22 04:08:00,68.0,58.3,29.99,SW,227,0.0,0.0,71,0.00,,,0.00,meteohub,2013-05-22 08:08:00,
2013-05-22 04:13:00,68.0,58.3,29.99,SW,227,0.0,0.0,71,0.00,,,0.00,meteohub,2013-05-22 08:13:00,
2013-05-22 04:18:00,67.8,58.1,29.99,SW,227,0.0,0.0,71,0.00,,,0.00,meteohub,2013-05-22 08:18:00,
2013-05-22 04:23:00,67.8,58.1,29.99,SW,227,0.0,0.0,71,0.00,,,0.00,meteohub,2013-05-22 08:23:00,
2013-05-22 04:28:00,67.6,57.9,30.02,SW,227,0.0,0.0,71,0.00,,,0.00,meteohub,2013-05-22 08:28:00,
2013-05-22 04:34:00,67.6,57.9,30.02,SW,227,0.0,0.0,71,0.00,,,0.00,meteohub,2013-05-22 08:34:00,
2013-05-22 04:39:00,67.6,57.9,30.02,SW,226,0.0,0.0,71,0.00,,,0.00,meteohub,2013-05-22 08:39:00,
2013-05-22 04:44:00,67.5,57.7,29.99,SW,227,0.0,0.0,71,0.00,,,0.00,meteohub,2013-05-22 08:44:00,
2013-05-22 04:49:00,67.5,57.7,29.99,SW,227,0.0,0.0,71,0.00,,,0.00,meteohub,2013-05-22 08:49:00,
2013-05-22 04:54:00,67.3,57.6,29.99,SW,227,0.0,0.0,71,0.00,,,0.00,meteohub,2013-05-22 08:54:00,
2013-05-22 04:59:00,67.3,57.6,29.99,SW,227,0.0,0.0,71,0.00,,,0.00,meteohub,2013-05-22 08:59:00,
2013-05-22 05:04:00,67.3,57.6,29.99,SW,227,0.0,0.0,71,0.00,,,0.00,meteohub,2013-05-22 09:04:00,
2013-05-22 05:09:00,67.1,57.4,29.99,SW,226,0.0,0.0,71,0.00,,,0.00,meteohub,2013-05-22 09:09:00,
2013-05-22 05:14:00,67.1,57.4,30.02,SW,226,0.0,0.0,71,0.00,,,0.00,meteohub,2013-05-22 09:14:00,
2013-05-22 05:19:00,66.9,57.6,30.02,SW,226,0.0,0.0,72,0.00,,,0.00,meteohub,2013-05-22 09:19:00,
2013-05-22 05:24:00,66.9,57.6,30.02,SW,226,0.0,0.0,72,0.00,,,0.00,meteohub,2013-05-22 09:24:00,
2013-05-22 05:29:00,66.9,57.6,30.02,SW,226,0.0,0.0,72,0.00,,,0.00,meteohub,2013-05-22 09:29:00,
2013-05-22 05:34:00,66.7,57.4,30.02,SW,227,0.0,0.0,72,0.00,,,0.00,meteohub,2013-05-22 09:34:00,
2013-05-22 05:39:00,66.7,57.4,30.02,SW,227,0.0,0.0,72,0.00,,,0.00,meteohub,2013-05-22 09:39:00,
2013-05-22 05:44:00,66.6,57.2,30.02,SW,226,0.0,0.0,72,0.00,,,0.00,meteohub,2013-05-22 09:44:00,
2013-05-22 05:49:00,66.6,57.2,30.02,SW,226,0.0,0.0,72,0.00,,,0.00,meteohub,2013-05-22 09:49:00,
2013-05-22 05:54:00,66.4,57.0,30.02,SW,226,0.0,0.0,72,0.00,,,0.00,meteohub,2013-05-22 09:54:00,
2013-05-22 05:59:00,66.4,57.0,30.02,SW,226,0.0,0.0,72,0.00,,,0.00,meteohub,2013-05-22 09:59:00,
2013-05-22 06:04:00,66.4,57.0,30.02,SW,226,0.0,0.0,72,0.00,,,0.00,meteohub,2013-05-22 10:04:00,
2013-05-22 06:09:00,66.2,56.8,30.02,SW,226,0.0,0.0,72,0.00,,,0.00,meteohub,2013-05-22 10:09:00,
2013-05-22 06:14:00,66.2,56.8,30.02,SW,226,0.0,0.0,72,0.00,,,0.00,meteohub,2013-05-22 10:14:00,
2013-05-22 06:19:00,66.2,56.8,30.02,SW,226,0.0,0.0,72,0.00,,,0.00,meteohub,2013-05-22 10:19:00,
2013-05-22 06:24:00,66.2,56.8,30.02,SW,226,0.0,0.0,72,0.00,,,0.00,meteohub,2013-05-22 10:24:00,
2013-05-22 06:29:00,66.2,56.8,30.02,SW,226,0.0,0.0,72,0.00,,,0.00,meteohub,2013-05-22 10:29:00,
2013-05-22 06:34:00,66.2,56.8,30.02,SW,226,0.0,0.0,72,0.00,,,0.00,meteohub,2013-05-22 10:34:00,
2013-05-22 06:39:00,66.2,56.8,30.02,SW,226,0.0,0.0,72,0.00,,,0.00,meteohub,2013-05-22 10:39:00,
2013-05-22 06:44:00,66.2,56.8,30.05,SW,226,0.0,0.0,72,0.00,,,0.00,meteohub,2013-05-22 10:44:00,
2013-05-22 06:50:00,66.0,56.7,30.05,SW,226,0.0,0.0,72,0.00,,,0.00,meteohub,2013-05-22 10:50:00,
2013-05-22 06:55:00,66.0,56.7,30.05,SW,226,0.0,0.0,72,0.00,,,0.00,meteohub,2013-05-22 10:55:00,
2013-05-22 07:00:00,66.0,56.7,30.05,SW,226,0.0,0.0,72,0.00,,,0.00,meteohub,2013-05-22 11:00:00,
2013-05-22 07:05:00,66.0,56.7,30.05,SW,226,0.0,0.0,72,0.00,,,0.00,meteohub,2013-05-22 11:05:00,
2013-05-22 07:10:00,66.0,57.2,30.05,SW,226,0.0,0.0,73,0.00,,,0.00,meteohub,2013-05-22 11:10:00,
2013-05-22 07:15:00,66.2,56.8,30.05,SW,226,3.0,0.0,72,0.00,,,0.00,meteohub,2013-05-22 11:15:00,
2013-05-22 07:20:00,66.2,56.8,30.05,SW,226,0.0,3.0,72,0.00,,,0.00,meteohub,2013-05-22 11:20:00,
2013-05-22 07:25:00,66.2,56.8,30.05,SW,226,2.0,3.0,72,0.00,,,0.00,meteohub,2013-05-22 11:25:00,
2013-05-22 07:30:00,66.2,56.8,30.02,SW,226,0.0,3.0,72,0.00,,,0.00,meteohub,2013-05-22 11:30:00,
2013-05-22 07:35:00,66.2,56.8,30.02,SW,226,0.0,3.0,72,0.00,,,0.00,meteohub,2013-05-22 11:35:00,
2013-05-22 07:40:00,66.2,56.8,30.01,SW,226,0.0,0.0,72,0.00,,,0.00,meteohub,2013-05-22 11:40:00,
2013-05-22 07:45:00,66.4,57.0,30.04,SW,226,3.0,3.0,72,0.00,,,0.00,meteohub,2013-05-22 11:45:00,
2013-05-22 07:50:00,66.4,57.4,30.04,West,279,0.0,4.0,73,0.00,,,0.00,meteohub,2013-05-22 11:50:00,
2013-05-22 07:55:00,66.6,57.6,30.04,SW,225,0.0,4.0,73,0.00,,,0.00,meteohub,2013-05-22 11:55:00,
2013-05-22 08:00:00,66.6,57.6,30.04,SW,225,0.0,4.0,73,0.00,,,0.00,meteohub,2013-05-22 12:00:00,
2013-05-22 08:05:00,66.7,57.7,30.04,SW,234,0.0,3.0,73,0.00,,,0.00,meteohub,2013-05-22 12:05:00,
2013-05-22 08:10:00,66.9,57.9,30.04,SW,234,0.0,3.0,73,0.00,,,0.00,meteohub,2013-05-22 12:10:00,
2013-05-22 08:15:00,67.1,58.1,30.04,SW,234,0.0,3.0,73,0.00,,,0.00,meteohub,2013-05-22 12:15:00,
2013-05-22 08:20:00,67.1,58.1,30.04,SW,234,0.0,0.0,73,0.00,,,0.00,meteohub,2013-05-22 12:20:00,
2013-05-22 08:25:00,67.3,58.3,30.04,SW,234,0.0,3.0,73,0.00,,,0.00,meteohub,2013-05-22 12:25:00,
2013-05-22 08:30:00,67.5,58.8,30.04,SW,234,0.0,3.0,74,0.00,,,0.00,meteohub,2013-05-22 12:30:00,
2013-05-22 08:35:00,67.6,59.0,30.04,SW,234,0.0,3.0,74,0.00,,,0.00,meteohub,2013-05-22 12:35:00,
2013-05-22 08:40:00,68.0,59.0,30.04,SW,234,0.0,2.0,73,0.00,,,0.00,meteohub,2013-05-22 12:40:00,
2013-05-22 08:45:00,68.2,59.2,30.04,SW,234,0.0,2.0,73,0.00,,,0.00,meteohub,2013-05-22 12:45:00,
2013-05-22 08:50:00,68.4,59.4,30.04,SW,234,0.0,2.0,73,0.00,,,0.00,meteohub,2013-05-22 12:50:00,
2013-05-22 08:55:00,68.5,59.5,30.04,WSW,246,0.0,4.0,73,0.00,,,0.00,meteohub,2013-05-22 12:55:00,
2013-05-22 09:00:00,68.9,59.9,30.03,WSW,245,0.0,4.0,73,0.00,,,0.00,meteohub,2013-05-22 13:00:00,
2013-05-22 09:05:00,69.3,60.3,30.03,WSW,245,3.0,4.0,73,0.00,,,0.00,meteohub,2013-05-22 13:05:00,
2013-05-22 09:10:00,69.4,60.4,30.03,WSW,245,0.0,4.0,73,0.00,,,0.00,meteohub,2013-05-22 13:10:00,
2013-05-22 09:15:00,69.8,60.8,30.03,WSW,244,0.0,4.0,73,0.00,,,0.00,meteohub,2013-05-22 13:15:00,
2013-05-22 09:20:00,70.2,61.2,30.03,West,267,0.0,5.0,73,0.00,,,0.00,meteohub,2013-05-22 13:20:00,
2013-05-22 09:26:00,70.3,61.3,30.03,WSW,254,3.0,5.0,73,0.00,,,0.00,meteohub,2013-05-22 13:26:00,
2013-05-22 09:31:00,70.7,61.2,30.03,WSW,257,0.0,4.0,72,0.00,,,0.00,meteohub,2013-05-22 13:31:00,
2013-05-22 09:36:00,71.1,61.5,30.03,WSW,257,0.0,4.0,72,0.00,,,0.00,meteohub,2013-05-22 13:36:00,
2013-05-22 09:41:00,71.4,61.9,30.03,SW,223,0.0,5.0,72,0.00,,,0.00,meteohub,2013-05-22 13:41:00,
2013-05-22 09:46:00,71.8,62.2,30.03,SSW,209,4.0,6.0,72,0.00,,,0.00,meteohub,2013-05-22 13:46:00,
2013-05-22 09:51:00,72.0,62.1,30.03,NNW,334,0.0,6.0,71,0.00,,,0.00,meteohub,2013-05-22 13:51:00,
2013-05-22 09:56:00,72.3,62.4,30.03,NNW,346,4.0,5.0,71,0.00,,,0.00,meteohub,2013-05-22 13:56:00,
2013-05-22 10:01:00,72.7,62.8,30.03,West,268,0.0,5.0,71,0.00,,,0.00,meteohub,2013-05-22 14:01:00,
2013-05-22 10:06:00,73.0,63.1,30.02,SSW,193,0.0,5.0,71,0.00,,,0.00,meteohub,2013-05-22 14:06:00,
2013-05-22 10:11:00,73.4,63.0,30.02,SW,229,3.0,5.0,70,0.00,,,0.00,meteohub,2013-05-22 14:11:00,
2013-05-22 10:16:00,73.9,63.5,30.02,SE,138,2.0,4.0,70,0.00,,,0.00,meteohub,2013-05-22 14:16:00,
2013-05-22 10:21:00,74.8,64.0,30.02,SW,229,4.0,6.0,69,0.00,,,0.00,meteohub,2013-05-22 14:21:00,
2013-05-22 10:26:00,75.7,64.8,30.02,SSW,195,4.0,6.0,69,0.00,,,0.00,meteohub,2013-05-22 14:26:00,
2013-05-22 10:31:00,75.7,64.4,30.02,NNW,344,3.0,6.0,68,0.00,,,0.00,meteohub,2013-05-22 14:31:00,
2013-05-22 10:36:00,75.7,64.4,30.02,North,353,3.0,6.0,68,0.00,,,0.00,meteohub,2013-05-22 14:36:00,
2013-05-22 10:41:00,76.1,64.8,30.02,WSW,245,0.0,8.0,68,0.00,,,0.00,meteohub,2013-05-22 14:41:00,
2013-05-22 10:46:00,76.3,64.9,30.02,NNE,26,2.0,8.0,68,0.00,,,0.00,meteohub,2013-05-22 14:46:00,
2013-05-22 10:51:00,76.5,64.8,30.02,NNE,16,2.0,5.0,67,0.00,,,0.00,meteohub,2013-05-22 14:51:00,
2013-05-22 10:56:00,76.8,64.9,30.02,SW,234,0.0,6.0,67,0.00,,,0.00,meteohub,2013-05-22 14:56:00,
2013-05-22 11:01:00,77.2,64.9,30.02,West,280,0.0,6.0,66,0.00,,,0.00,meteohub,2013-05-22 15:01:00,
2013-05-22 11:06:00,77.2,64.9,30.02,West,279,0.0,6.0,66,0.00,,,0.00,meteohub,2013-05-22 15:06:00,
2013-05-22 11:11:00,77.2,64.9,30.02,North,4,2.0,8.0,66,0.00,,,0.00,meteohub,2013-05-22 15:11:00,
2013-05-22 11:16:00,77.4,65.1,30.02,WSW,244,4.0,8.0,66,0.00,,,0.00,meteohub,2013-05-22 15:16:00,
2013-05-22 11:21:00,77.4,64.8,30.02,NNW,341,3.0,6.0,65,0.00,,,0.00,meteohub,2013-05-22 15:21:00,
2013-05-22 11:26:00,77.5,64.8,30.02,SW,218,6.0,6.0,65,0.00,,,0.00,meteohub,2013-05-22 15:26:00,
2013-05-22 11:31:00,77.9,65.1,30.02,WSW,253,3.0,6.0,65,0.00,,,0.00,meteohub,2013-05-22 15:31:00,
2013-05-22 11:36:00,78.1,65.3,30.02,North,353,0.0,6.0,65,0.00,,,0.00,meteohub,2013-05-22 15:36:00,
2013-05-22 11:41:00,78.3,65.5,30.02,West,268,4.0,6.0,65,0.00,,,0.00,meteohub,2013-05-22 15:41:00,
2013-05-22 11:46:00,78.6,65.5,30.02,North,11,4.0,4.0,64,0.00,,,0.00,meteohub,2013-05-22 15:46:00,
2013-05-22 11:51:00,78.8,65.7,30.02,SW,224,4.0,6.0,64,0.00,,,0.00,meteohub,2013-05-22 15:51:00,
2013-05-22 11:57:00,79.0,65.8,30.02,SW,225,0.0,6.0,64,0.00,,,0.00,meteohub,2013-05-22 15:57:00,
2013-05-22 12:02:00,79.2,65.5,30.02,WSW,243,2.0,6.0,63,0.00,,,0.00,meteohub,2013-05-22 16:02:00,
2013-05-22 12:07:00,79.3,65.7,30.02,NNW,331,0.0,5.0,63,0.00,,,0.00,meteohub,2013-05-22 16:07:00,
2013-05-22 12:12:00,79.7,66.0,30.02,SW,217,2.0,6.0,63,0.00,,,0.00,meteohub,2013-05-22 16:12:00,
2013-05-22 12:17:00,80.1,66.4,30.02,SW,219,4.0,6.0,63,0.00,,,0.00,meteohub,2013-05-22 16:17:00,
2013-05-22 12:22:00,80.2,66.6,30.02,SW,224,3.0,6.0,63,0.00,,,0.00,meteohub,2013-05-22 16:22:00,
2013-05-22 12:27:00,80.6,66.4,30.01,South,186,5.0,6.0,62,0.00,,,0.00,meteohub,2013-05-22 16:27:00,
2013-05-22 12:32:00,81.3,66.6,29.99,SW,217,5.0,10.0,61,0.00,,,0.00,meteohub,2013-05-22 16:32:00,
2013-05-22 12:37:00,81.5,66.7,29.99,SSW,199,3.0,10.0,61,0.00,,,0.00,meteohub,2013-05-22 16:37:00,
2013-05-22 12:42:00,82.0,67.3,29.99,SSW,199,4.0,10.0,61,0.00,,,0.00,meteohub,2013-05-22 16:42:00,
2013-05-22 12:47:00,82.4,67.1,29.99,SSW,194,8.0,8.0,60,0.00,,,0.00,meteohub,2013-05-22 16:47:00,
2013-05-22 12:52:00,82.6,67.3,29.99,WSW,244,4.0,8.0,60,0.00,,,0.00,meteohub,2013-05-22 16:52:00,
2013-05-22 12:57:00,82.9,67.6,29.99,South,189,4.0,8.0,60,0.00,,,0.00,meteohub,2013-05-22 16:57:00,
2013-05-22 13:02:00,83.5,68.2,29.99,SSW,211,5.0,8.0,60,0.00,,,0.00,meteohub,2013-05-22 17:02:00,
2013-05-22 13:07:00,83.7,68.4,29.99,SW,216,4.0,8.0,60,0.00,,,0.00,meteohub,2013-05-22 17:07:00,
2013-05-22 13:12:00,83.8,68.5,29.99,SSW,197,5.0,8.0,60,0.00,,,0.00,meteohub,2013-05-22 17:12:00,
2013-05-22 13:17:00,84.4,68.5,29.99,SSW,207,4.0,8.0,59,0.00,,,0.00,meteohub,2013-05-22 17:17:00,
2013-05-22 13:22:00,84.6,68.2,29.99,South,178,4.0,8.0,58,0.00,,,0.00,meteohub,2013-05-22 17:22:00,
2013-05-22 13:27:00,84.6,68.2,29.98,WSW,240,3.0,8.0,58,0.00,,,0.00,meteohub,2013-05-22 17:27:00,
2013-05-22 13:32:00,84.4,68.0,29.98,NW,322,4.0,8.0,58,0.00,,,0.00,meteohub,2013-05-22 17:32:00,
2013-05-22 13:37:00,84.4,67.5,29.98,WSW,255,3.0,6.0,57,0.00,,,0.00,meteohub,2013-05-22 17:37:00,
2013-05-22 13:42:00,84.2,67.3,29.98,SSW,193,6.0,6.0,57,0.00,,,0.00,meteohub,2013-05-22 17:42:00,
2013-05-22 13:47:00,84.6,67.1,29.95,South,181,5.0,8.0,56,0.00,,,0.00,meteohub,2013-05-22 17:47:00,
2013-05-22 13:52:00,84.6,67.1,29.95,SSW,192,4.0,9.0,56,0.00,,,0.00,meteohub,2013-05-22 17:52:00,
2013-05-22 13:57:00,84.4,66.9,29.95,NNE,22,2.0,9.0,56,0.00,,,0.00,meteohub,2013-05-22 17:57:00,
2013-05-22 14:02:00,84.4,66.9,29.95,SSE,159,3.0,9.0,56,0.00,,,0.00,meteohub,2013-05-22 18:02:00,
2013-05-22 14:07:00,84.4,66.9,29.95,SSE,158,4.0,6.0,56,0.00,,,0.00,meteohub,2013-05-22 18:07:00,
2013-05-22 14:12:00,84.4,66.4,29.95,NNW,337,2.0,9.0,55,0.00,,,0.00,meteohub,2013-05-22 18:12:00,
2013-05-22 14:17:00,84.4,66.4,29.95,WNW,291,6.0,9.0,55,0.00,,,0.00,meteohub,2013-05-22 18:17:00,
2013-05-22 14:22:00,84.4,66.4,29.95,North,11,0.0,9.0,55,0.00,,,0.00,meteohub,2013-05-22 18:22:00,
2013-05-22 14:27:00,84.4,66.4,29.95,NW,308,4.0,8.0,55,0.00,,,0.00,meteohub,2013-05-22 18:27:00,
2013-05-22 14:32:00,84.6,66.6,29.94,South,187,2.0,8.0,55,0.00,,,0.00,meteohub,2013-05-22 18:32:00,
2013-05-22 14:37:00,84.6,66.0,29.95,West,265,4.0,7.0,54,0.00,,,0.00,meteohub,2013-05-22 18:37:00,
2013-05-22 14:42:00,84.4,65.8,29.95,South,185,6.0,7.0,54,0.00,,,0.00,meteohub,2013-05-22 18:42:00,
2013-05-22 14:47:00,84.6,66.0,29.95,SW,229,5.0,10.0,54,0.00,,,0.00,meteohub,2013-05-22 18:47:00,
2013-05-22 14:52:00,84.4,65.8,29.95,SW,222,0.0,10.0,54,0.00,,,0.00,meteohub,2013-05-22 18:52:00,
2013-05-22 14:57:00,84.4,65.3,29.95,North,0,4.0,10.0,53,0.00,,,0.00,meteohub,2013-05-22 18:57:00,
2013-05-22 15:02:00,84.2,65.3,29.95,SSW,206,2.0,8.0,53,0.00,,,0.00,meteohub,2013-05-22 19:02:00,
2013-05-22 15:07:00,84.2,65.3,29.95,SW,226,5.0,7.0,53,0.00,,,0.00,meteohub,2013-05-22 19:07:00,
2013-05-22 15:12:00,84.0,65.1,29.95,South,179,6.0,11.0,53,0.00,,,0.00,meteohub,2013-05-22 19:12:00,
2013-05-22 15:17:00,83.8,64.9,29.92,SW,232,6.0,11.0,53,0.00,,,0.00,meteohub,2013-05-22 19:17:00,
2013-05-22 15:22:00,83.8,64.9,29.92,SSW,204,5.0,11.0,53,0.00,,,0.00,meteohub,2013-05-22 19:22:00,
2013-05-22 15:27:00,83.8,64.9,29.92,SSW,195,4.0,8.0,53,0.00,,,0.00,meteohub,2013-05-22 19:27:00,
2013-05-22 15:32:00,83.7,64.8,29.91,WSW,256,4.0,8.0,53,0.00,,,0.00,meteohub,2013-05-22 19:32:00,
2013-05-22 15:37:00,83.7,64.8,29.91,SSW,196,8.0,8.0,53,0.00,,,0.00,meteohub,2013-05-22 19:37:00,
2013-05-22 15:42:00,83.5,64.6,29.91,SW,230,3.0,8.0,53,0.00,,,0.00,meteohub,2013-05-22 19:42:00,
2013-05-22 15:47:00,83.3,64.9,29.91,WSW,247,3.0,10.0,54,0.00,,,0.00,meteohub,2013-05-22 19:47:00,
2013-05-22 15:52:00,83.3,64.9,29.91,North,5,6.0,10.0,54,0.00,,,0.00,meteohub,2013-05-22 19:52:00,
2013-05-22 15:57:00,83.3,64.9,29.91,WNW,300,6.0,10.0,54,0.00,,,0.00,meteohub,2013-05-22 19:57:00,
2013-05-22 16:02:00,83.1,64.8,29.88,West,266,3.0,8.0,54,0.00,,,0.00,meteohub,2013-05-22 20:02:00,
2013-05-22 16:07:00,82.8,63.9,29.88,West,273,0.0,8.0,53,0.00,,,0.00,meteohub,2013-05-22 20:07:00,
2013-05-22 16:12:00,82.6,63.7,29.89,SW,225,4.0,8.0,53,0.00,,,0.00,meteohub,2013-05-22 20:12:00,
2013-05-22 16:17:00,82.4,63.5,29.89,ESE,118,2.0,8.0,53,0.00,,,0.00,meteohub,2013-05-22 20:17:00,
2013-05-22 16:22:00,82.2,63.9,29.89,NNW,330,6.0,7.0,54,0.00,,,0.00,meteohub,2013-05-22 20:22:00,
2013-05-22 16:27:00,82.2,63.9,29.89,West,259,2.0,7.0,54,0.00,,,0.00,meteohub,2013-05-22 20:27:00,
2013-05-22 16:32:00,82.0,63.7,29.88,WSW,237,7.0,7.0,54,0.00,,,0.00,meteohub,2013-05-22 20:32:00,
2013-05-22 16:37:00,81.9,63.5,29.88,SW,220,0.0,8.0,54,0.00,,,0.00,meteohub,2013-05-22 20:37:00,
2013-05-22 16:42:00,81.9,63.5,29.88,SW,225,4.0,8.0,54,0.00,,,0.00,meteohub,2013-05-22 20:42:00,
2013-05-22 16:47:00,81.5,63.3,29.88,West,276,3.0,8.0,54,0.00,,,0.00,meteohub,2013-05-22 20:47:00,
2013-05-22 16:52:00,81.5,63.3,29.89,SSW,201,5.0,9.0,54,0.00,,,0.00,meteohub,2013-05-22 20:52:00,
2013-05-22 16:57:00,81.5,63.3,29.88,SSW,197,5.0,9.0,54,0.00,,,0.00,meteohub,2013-05-22 20:57:00,
2013-05-22 17:02:00,81.3,63.1,29.89,SW,217,3.0,8.0,54,0.00,,,0.00,meteohub,2013-05-22 21:02:00,
2013-05-22 17:07:00,81.1,63.0,29.89,SW,218,4.0,8.0,54,0.00,,,0.00,meteohub,2013-05-22 21:07:00,
2013-05-22 17:12:00,80.1,67.3,29.89,SW,223,3.0,8.0,65,0.00,,,0.00,meteohub,2013-05-22 21:12:00,
2013-05-22 17:17:00,79.2,68.5,29.89,SSW,201,5.0,8.0,70,0.00,,,0.00,meteohub,2013-05-22 21:17:00,
2013-05-22 17:22:00,78.8,69.8,29.89,SSW,192,4.0,6.0,74,0.04,,,0.04,meteohub,2013-05-22 21:22:00,
2013-05-22 17:27:00,78.6,70.9,29.90,West,263,3.0,6.0,77,0.04,,,0.04,meteohub,2013-05-22 21:27:00,
2013-05-22 17:32:00,77.2,70.2,29.90,SW,216,6.0,9.0,79,0.08,,,0.08,meteohub,2013-05-22 21:32:00,
2013-05-22 17:37:00,76.3,71.4,29.91,SSE,160,3.0,12.0,85,0.20,,,0.20,meteohub,2013-05-22 21:37:00,
2013-05-22 17:42:00,75.9,72.5,29.91,SSE,160,0.0,12.0,89,0.25,,,0.25,meteohub,2013-05-22 21:42:00,
2013-05-22 17:47:00,75.6,72.5,29.88,SSE,160,2.0,10.0,90,0.25,,,0.25,meteohub,2013-05-22 21:47:00,
2013-05-22 17:52:00,75.2,72.7,29.88,SSE,160,0.0,5.0,92,0.25,,,0.25,meteohub,2013-05-22 21:52:00,
2013-05-22 17:57:00,75.2,73.0,29.88,SSE,160,3.0,4.0,93,0.25,,,0.25,meteohub,2013-05-22 21:57:00,
2013-05-22 18:02:00,75.0,73.2,29.91,SSE,160,0.0,4.0,94,0.25,,,0.25,meteohub,2013-05-22 22:02:00,
2013-05-22 18:07:00,75.0,73.2,29.91,SSE,160,2.0,4.0,94,0.25,,,0.25,meteohub,2013-05-22 22:07:00,
2013-05-22 18:12:00,75.0,73.4,29.91,SSE,160,0.0,3.0,95,0.25,,,0.25,meteohub,2013-05-22 22:12:00,
2013-05-22 18:17:00,74.8,73.2,29.91,SSE,159,0.0,3.0,95,0.25,,,0.25,meteohub,2013-05-22 22:17:00,
2013-05-22 18:22:00,74.8,73.2,29.90,SSE,159,0.0,3.0,95,0.21,,,0.25,meteohub,2013-05-22 22:22:00,
2013-05-22 18:27:00,74.8,73.2,29.90,SSE,159,0.0,3.0,95,0.21,,,0.25,meteohub,2013-05-22 22:27:00,
2013-05-22 18:32:00,74.7,73.2,29.87,WNW,291,0.0,3.0,95,0.08,,,0.25,meteohub,2013-05-22 22:32:00,
2013-05-22 18:37:00,74.7,73.4,29.87,WNW,286,0.0,4.0,96,0.00,,,0.25,meteohub,2013-05-22 22:37:00,
2013-05-22 18:42:00,74.5,73.2,29.87,WSW,257,2.0,4.0,96,0.00,,,0.25,meteohub,2013-05-22 22:42:00,
2013-05-22 18:47:00,74.3,73.0,29.90,West,275,3.0,4.0,96,0.00,,,0.25,meteohub,2013-05-22 22:47:00,
2013-05-22 18:52:00,74.1,72.9,29.91,SW,232,0.0,4.0,96,0.00,,,0.25,meteohub,2013-05-22 22:52:00,
2013-05-22 18:57:00,74.1,72.9,29.91,SW,218,0.0,5.0,96,0.00,,,0.25,meteohub,2013-05-22 22:57:00,
2013-05-22 19:02:00,73.9,72.7,29.91,East,97,0.0,5.0,96,0.00,,,0.25,meteohub,2013-05-22 23:02:00,
2013-05-22 19:07:00,73.8,72.5,29.91,North,350,0.0,4.0,96,0.00,,,0.25,meteohub,2013-05-22 23:07:00,
2013-05-22 19:12:00,73.8,72.5,29.91,ESE,109,0.0,3.0,96,0.00,,,0.25,meteohub,2013-05-22 23:12:00,
2013-05-22 19:17:00,73.6,72.7,29.91,West,272,2.0,2.0,97,0.00,,,0.25,meteohub,2013-05-22 23:17:00,
2013-05-22 19:22:00,73.2,72.3,29.91,West,272,3.0,3.0,97,0.00,,,0.25,meteohub,2013-05-22 23:22:00,
2013-05-22 19:27:00,73.0,72.1,29.91,West,272,0.0,3.0,97,0.00,,,0.25,meteohub,2013-05-22 23:27:00,
2013-05-22 19:32:00,73.0,72.1,29.91,West,272,0.0,3.0,97,0.00,,,0.25,meteohub,2013-05-22 23:32:00,
2013-05-22 19:37:00,72.9,72.0,29.91,West,272,0.0,3.0,97,0.00,,,0.25,meteohub,2013-05-22 23:37:00,
2013-05-22 19:42:00,72.9,72.0,29.91,West,272,0.0,2.0,97,0.00,,,0.25,meteohub,2013-05-22 23:42:00,
2013-05-22 19:47:00,72.7,71.8,29.91,West,272,0.0,0.0,97,0.00,,,0.25,meteohub,2013-05-22 23:47:00,
2013-05-22 19:52:00,72.7,71.8,29.91,West,272,0.0,0.0,97,0.00,,,0.25,meteohub,2013-05-22 23:52:00,
2013-05-22 19:57:00,72.5,71.6,29.91,West,272,0.0,0.0,97,0.00,,,0.25,meteohub,2013-05-22 23:57:00,
2013-05-22 20:02:00,72.1,71.2,29.91,West,272,0.0,0.0,97,0.00,,,0.25,meteohub,2013-05-23 00:02:00,
2013-05-22 20:07:00,72.1,71.6,29.91,West,272,0.0,0.0,98,0.04,,,0.04,meteohub,2013-05-23 00:07:00,
2013-05-22 20:12:00,72.0,71.4,29.91,West,272,0.0,0.0,98,0.04,,,0.04,meteohub,2013-05-23 00:12:00,
2013-05-22 20:17:00,71.8,71.2,29.91,West,272,0.0,0.0,98,0.04,,,0.04,meteohub,2013-05-23 00:17:00,
2013-05-22 20:22:00,71.6,71.1,29.91,West,272,0.0,0.0,98,0.04,,,0.04,meteohub,2013-05-23 00:22:00,
2013-05-22 20:27:00,71.6,71.1,29.91,West,272,0.0,0.0,98,0.04,,,0.04,meteohub,2013-05-23 00:27:00,
2013-05-22 20:32:00,71.4,70.9,29.91,West,272,0.0,0.0,98,0.04,,,0.04,meteohub,2013-05-23 00:32:00,
2013-05-22 20:37:00,71.2,70.7,29.92,West,272,0.0,0.0,98,0.04,,,0.04,meteohub,2013-05-23 00:37:00,
2013-05-22 20:42:00,71.2,70.7,29.92,West,272,3.0,0.0,98,0.04,,,0.04,meteohub,2013-05-23 00:42:00,
2013-05-22 20:47:00,70.9,70.3,29.95,West,272,0.0,3.0,98,0.04,,,0.04,meteohub,2013-05-23 00:47:00,
2013-05-22 20:52:00,70.9,70.3,29.95,West,272,0.0,3.0,98,0.04,,,0.04,meteohub,2013-05-23 00:52:00,
2013-05-22 20:57:00,70.7,70.2,29.95,West,271,0.0,3.0,98,0.04,,,0.04,meteohub,2013-05-23 00:57:00,
2013-05-22 21:02:00,70.7,70.2,29.95,West,272,0.0,4.0,98,0.00,,,0.04,meteohub,2013-05-23 01:02:00,
2013-05-22 21:07:00,70.7,70.2,29.95,West,272,0.0,4.0,98,0.00,,,0.04,meteohub,2013-05-23 01:07:00,
2013-05-22 21:12:00,70.5,70.0,29.95,West,272,0.0,0.0,98,0.00,,,0.04,meteohub,2013-05-23 01:12:00,
2013-05-22 21:17:00,70.5,70.0,29.95,West,272,0.0,0.0,98,0.00,,,0.04,meteohub,2013-05-23 01:17:00,
2013-05-22 21:22:00,70.3,69.8,29.95,West,272,0.0,0.0,98,0.00,,,0.04,meteohub,2013-05-23 01:22:00,
2013-05-22 21:27:00,70.3,69.8,29.95,West,271,0.0,0.0,98,0.00,,,0.04,meteohub,2013-05-23 01:27:00,
2013-05-22 21:32:00,70.2,69.6,29.95,West,271,0.0,0.0,98,0.00,,,0.04,meteohub,2013-05-23 01:32:00,
2013-05-22 21:37:00,70.2,69.6,29.95,West,271,0.0,0.0,98,0.00,,,0.04,meteohub,2013-05-23 01:37:00,
2013-05-22 21:42:00,70.2,69.6,29.95,North,349,0.0,0.0,98,0.00,,,0.04,meteohub,2013-05-23 01:42:00,
2013-05-22 21:47:00,70.0,69.4,29.98,North,349,5.0,5.0,98,0.00,,,0.04,meteohub,2013-05-23 01:47:00,
2013-05-22 21:52:00,69.8,69.3,29.98,ENE,60,8.0,8.0,98,0.00,,,0.04,meteohub,2013-05-23 01:52:00,
2013-05-22 21:57:00,69.4,68.9,29.98,NNE,30,9.0,15.0,98,0.00,,,0.04,meteohub,2013-05-23 01:57:00,
2013-05-22 22:02:00,69.1,68.5,29.98,NNE,14,6.0,15.0,98,0.00,,,0.04,meteohub,2013-05-23 02:02:00,
2013-05-22 22:07:00,68.7,68.2,29.98,West,266,8.0,15.0,98,0.00,,,0.04,meteohub,2013-05-23 02:07:00,
2013-05-22 22:12:00,68.2,67.6,29.98,ENE,71,4.0,13.0,98,0.00,,,0.04,meteohub,2013-05-23 02:12:00,
2013-05-22 22:17:00,67.8,67.3,30.01,North,357,4.0,13.0,98,0.04,,,0.08,meteohub,2013-05-23 02:17:00,
2013-05-22 22:22:00,67.3,66.7,30.02,NNE,17,0.0,13.0,98,0.13,,,0.17,meteohub,2013-05-23 02:22:00,
2013-05-22 22:27:00,67.3,66.7,30.02,NNE,17,0.0,6.0,98,0.17,,,0.21,meteohub,2013-05-23 02:27:00,
2013-05-22 22:32:00,66.9,66.4,30.02,SSW,210,0.0,4.0,98,0.25,,,0.29,meteohub,2013-05-23 02:32:00,
2013-05-22 22:37:00,66.9,66.4,30.02,WNW,292,0.0,4.0,98,0.25,,,0.29,meteohub,2013-05-23 02:37:00,
2013-05-22 22:42:00,66.7,66.2,30.02,SSW,211,0.0,5.0,98,0.25,,,0.29,meteohub,2013-05-23 02:42:00,
2013-05-22 22:47:00,66.6,66.0,30.02,SSW,211,0.0,5.0,98,0.29,,,0.33,meteohub,2013-05-23 02:47:00,
2013-05-22 22:52:00,66.6,66.0,30.02,SSW,211,0.0,5.0,98,0.29,,,0.33,meteohub,2013-05-23 02:52:00,
2013-05-22 22:57:00,66.4,65.8,30.02,SSW,211,2.0,3.0,98,0.29,,,0.33,meteohub,2013-05-23 02:57:00,
2013-05-22 23:02:00,66.2,65.7,29.99,SSW,211,3.0,4.0,98,0.29,,,0.33,meteohub,2013-05-23 03:02:00,
2013-05-22 23:07:00,66.0,65.5,29.99,SSW,211,0.0,4.0,98,0.29,,,0.33,meteohub,2013-05-23 03:07:00,
2013-05-22 23:12:00,66.0,65.5,29.99,SSW,211,0.0,4.0,98,0.29,,,0.33,meteohub,2013-05-23 03:12:00,
2013-05-22 23:17:00,66.0,65.5,29.99,SSW,211,0.0,3.0,98,0.25,,,0.33,meteohub,2013-05-23 03:17:00,
2013-05-22 23:22:00,65.8,65.3,29.99,West,264,0.0,2.0,98,0.12,,,0.33,meteohub,2013-05-23 03:22:00,
2013-05-22 23:27:00,65.8,65.3,29.99,West,264,0.0,4.0,98,0.17,,,0.37,meteohub,2013-05-23 03:27:00,
2013-05-22 23:32:00,65.8,65.3,29.99,West,264,0.0,4.0,98,0.08,,,0.37,meteohub,2013-05-23 03:32:00,
2013-05-22 23:37:00,65.7,65.1,29.99,West,264,0.0,4.0,98,0.08,,,0.37,meteohub,2013-05-23 03:37:00,
2013-05-22 23:42:00,65.7,65.1,29.99,West,264,0.0,0.0,98,0.08,,,0.37,meteohub,2013-05-23 03:42:00,
2013-05-22 23:47:00,65.5,64.9,29.99,West,264,2.0,0.0,98,0.08,,,0.41,meteohub,2013-05-23 03:47:00,
2013-05-22 23:52:00,65.5,64.9,29.99,West,264,0.0,3.0,98,0.08,,,0.41,meteohub,2013-05-23 03:52:00,
2013-05-22 23:57:00,65.5,64.9,29.99,West,264,0.0,3.0,98,0.08,,,0.41,meteohub,2013-05-23 03:57:00,